Location: Fauquembergues
(50.6005°N, 2.0987°E)
Time: 20:54:22
(UTC+00:00)

Cosmos 1674 Rocket - Pass Details

Date: 14 July 2020
Orbit: 602 x 631 km, 82.5° (Epoch: 14 August)

Event Time Altitude Azimuth Distance (km) Brightness Sun altitude
Rises 02:40:13 0° 347° (NNW) 2,892 7.6 -9.4°
Reaches altitude 10° 02:42:28 10° 344° (NNW) 1,978 6.7 -9.2°
Maximum altitude 02:46:47 63° 264° (W) 683 3.6 -8.7°
Drops below altitude 10° 02:51:03 10° 184° (S) 1,948 5.6 -8.3°
Enters shadow 02:52:19 - 182° (S) 2,464 6.2 -8.2°
